TimeCST,TemperatureF,Dew PointF,Humidity,Sea Level PressureIn,VisibilityMPH,Wind Direction,Wind SpeedMPH,Gust SpeedMPH,PrecipitationIn,Events,Conditions,WindDirDegrees,DateUTC
12:53 AM,24.1,19.9,84,30.13,7.0,SE,5.8,-,N/A,,Clear,140,2013-11-08 06:53:00
1:53 AM,27.0,21.9,81,30.12,7.0,SE,6.9,-,N/A,,Clear,140,2013-11-08 07:53:00
2:53 AM,28.0,23.0,81,30.10,8.0,SE,4.6,-,N/A,,Clear,140,2013-11-08 08:53:00
3:53 AM,28.9,23.0,78,30.06,9.0,SE,6.9,-,N/A,,Clear,130,2013-11-08 09:53:00
4:53 AM,30.0,24.1,79,30.02,9.0,ESE,9.2,-,N/A,,Partly Cloudy,120,2013-11-08 10:53:00
5:53 AM,33.1,25.0,72,29.98,10.0,SE,10.4,-,N/A,,Partly Cloudy,130,2013-11-08 11:53:00
6:53 AM,36.0,26.1,67,29.94,10.0,SE,12.7,21.9,N/A,,Overcast,130,2013-11-08 12:53:00
7:53 AM,37.9,27.0,65,29.89,10.0,SE,15.0,-,N/A,,Overcast,130,2013-11-08 13:53:00
8:53 AM,39.9,28.0,63,29.84,10.0,ESE,19.6,26.5,N/A,,Overcast,120,2013-11-08 14:53:00
9:53 AM,42.1,27.0,55,29.79,10.0,SE,19.6,27.6,N/A,,Overcast,130,2013-11-08 15:53:00
10:53 AM,43.0,25.0,49,29.75,10.0,SE,24.2,34.5,N/A,,Overcast,130,2013-11-08 16:53:00
11:53 AM,44.1,23.0,43,29.71,10.0,SE,21.9,28.8,N/A,,Overcast,140,2013-11-08 17:53:00
12:53 PM,45.0,21.0,39,29.66,10.0,SSE,25.3,31.1,N/A,,Overcast,150,2013-11-08 18:53:00
1:53 PM,44.1,25.0,47,29.63,10.0,SSE,19.6,28.8,0.00,Rain,Light Rain,160,2013-11-08 19:53:00
2:53 PM,39.9,30.9,70,29.62,6.0,SSE,23.0,31.1,0.00,Rain,Light Rain,160,2013-11-08 20:53:00
3:40 PM,37.4,32.0,81,29.60,2.5,SSE,19.6,27.6,0.04,Rain,Rain,160,2013-11-08 21:40:00
3:53 PM,37.0,32.0,82,29.63,2.5,South,18.4,29.9,0.07,Rain,Rain,170,2013-11-08 21:53:00
4:33 PM,37.4,32.0,81,29.59,3.0,SSE,13.8,19.6,0.09,Rain,Light Rain,150,2013-11-08 22:33:00
4:45 PM,37.4,33.8,87,29.59,5.0,SSE,11.5,18.4,0.10,Rain,Light Rain,160,2013-11-08 22:45:00
4:53 PM,36.0,33.1,89,29.62,5.0,SSE,11.5,-,0.11,Rain,Light Rain,150,2013-11-08 22:53:00
5:53 PM,37.0,33.1,86,29.62,9.0,SE,11.5,-,0.03,Rain,Light Rain,140,2013-11-08 23:53:00
6:53 PM,37.0,34.0,89,29.62,9.0,SSE,6.9,-,0.00,,Overcast,160,2013-11-09 00:53:00
7:53 PM,37.9,34.0,86,29.61,8.0,SE,5.8,-,N/A,,Overcast,140,2013-11-09 01:53:00
8:53 PM,37.0,35.1,93,29.61,7.0,Calm,Calm,-,N/A,,Overcast,0,2013-11-09 02:53:00
9:53 PM,35.1,33.1,92,29.61,6.0,SW,3.5,-,N/A,,Overcast,230,2013-11-09 03:53:00
10:53 PM,36.0,34.0,93,29.63,4.0,WSW,8.1,-,N/A,,Overcast,250,2013-11-09 04:53:00
11:53 PM,37.0,34.0,89,29.65,8.0,West,8.1,-,N/A,,Overcast,270,2013-11-09 05:53:00